Location: Boley
(53.1150°N, 8.2269°W)
Time: 00:21:12
(UTC+00:00)

Cosmos 372 Rocket - Pass Details

Date: 15 May 2026
Orbit: 734 x 761 km, 74.1° (Epoch: 9 June)

Event Time Altitude Azimuth Distance (km) Brightness Sun altitude
Rises 23:35:35 0° 330° (NNW) 3,195 8.7 -16.9°
Reaches altitude 10° 23:38:01 10° 325° (NW) 2,263 7.5 -17.0°
Maximum altitude 23:42:53 46° 253° (WSW) 989 4.5 -17.1°
Enters shadow 23:45:15 27° 197° (SSW) 1,395 4.8 -17.2°
